CW0655 Weather Reports


time (UTC)temp
F
wind
direction
speed
knots
gust
knots
rain 1hr
in
rain 24hr
in
rain mn
in
humidity
%
barometer
mb
20260507064103 50 15 0.0 0.0 0.00 0.26 0.01 95 1006.5
20260507062103 50 15 0.0 0.0 0.00 0.26 0.01 95 1006.5
20260507061103 50 14 0.0 0.0 0.00 0.26 0.01 95 1006.6
20260507055103 50 47 0.0 0.0 0.00 0.26 0.01 96 1006.6
20260507054103 51 47 0.0 0.9 0.00 0.26 0.01 96 1007.0
20260507053103 51 47 0.0 0.0 0.00 0.26 0.01 96 1007.1
20260507052103 51 47 0.0 3.5 0.00 0.26 0.01 96 1007.0
20260507051103 51 39 0.0 0.0 0.00 0.26 0.01 96 1007.0
20260507045103 52 89 0.0 0.0 0.02 0.26 0.01 96 1006.8
20260507044103 52 89 0.0 0.0 0.04 0.26 0.01 96 1006.8
20260507043103 53 142 0.0 4.3 0.04 0.26 0.01 96 1006.8
20260507042103 54 9 0.0 3.5 0.04 0.26 0.01 96 1006.7
20260507041103 54 334 0.0 0.0 0.04 0.26 0.01 96 1006.9
20260507035103 55 334 0.0 0.0 0.02 0.24 0.24 96 1006.7
20260507034103 55 334 0.0 0.9 0.00 0.22 0.22 96 1006.5
20260507033103 56 334 0.9 2.6 0.00 0.22 0.22 96 1006.2
20260507032103 57 305 0.0 5.2 0.00 0.22 0.22 96 1006.0
20260507031103 58 360 0.0 2.6 0.00 0.22 0.22 97 1005.8
20260507025103 59 190 0.0 0.0 0.00 0.22 0.22 96 1005.9
20260507024103 59 190 0.0 0.0 0.00 0.22 0.22 96 1005.8
20260507023103 59 190 0.0 0.0 0.00 0.22 0.22 96 1005.8
20260507021103 58 190 0.0 0.0 0.00 0.22 0.22 96 1005.4
20260507015102 58 190 0.0 0.0 0.00 0.22 0.22 96 1005.4
20260507014102 58 190 0.0 1.7 0.00 0.22 0.22 96 1005.4
20260507013102 58 191 0.9 3.5 0.00 0.22 0.22 96 1005.5
20260507012102 58 188 0.9 1.7 0.00 0.22 0.22 96 1005.5
20260507005102 58 198 0.0 3.5 0.00 0.22 0.22 96 1005.5
20260507003102 58 197 0.0 0.9 0.00 0.22 0.22 96 1005.4
20260507002102 59 196 0.0 2.6 0.00 0.22 0.22 96 1005.3
20260507001102 59 199 0.0 2.6 0.01 0.22 0.22 96 1005.3
20260506234102 59 182 0.0 3.5 0.07 0.22 0.22 96 1005.1
20260506233102 59 163 1.7 2.6 0.08 0.22 0.22 96 1005.1
20260506232102 59 164 0.0 4.3 0.09 0.22 0.22 96 1005.1
20260506231102 59 130 0.0 2.6 0.09 0.21 0.21 96 1005.2
20260506225102 59 187 0.0 4.3 0.06 0.16 0.16 96 1005.5
20260506224102 59 188 0.0 2.6 0.06 0.15 0.15 95 1005.5
20260506223102 59 186 0.0 3.5 0.05 0.14 0.14 95 1005.3
20260506222102 59 168 0.0 0.0 0.04 0.13 0.13 95 1005.5
20260506221102 59 172 0.0 3.5 0.03 0.12 0.12 95 1005.5
20260506215102 59 185 0.9 3.5 0.02 0.10 0.10 95 1005.6
20260506214102 59 162 2.6 3.5 0.01 0.09 0.09 95 1005.6
20260506213102 59 211 0.0 2.6 0.02 0.09 0.09 95 1005.6
20260506212102 60 146 0.0 2.6 0.03 0.09 0.09 95 1005.7
20260506205102 60 199 0.0 4.3 0.04 0.08 0.08 94 1006.1
20260506204101 61 246 0.0 5.2 0.04 0.08 0.08 94 1006.3
20260506203102 61 199 0.0 3.5 0.03 0.07 0.07 93 1006.3
20260506202102 61 229 1.7 5.2 0.02 0.06 0.06 92 1006.3
20260506201102 62 127 0.9 5.2 0.02 0.06 0.06 91 1006.1
20260506194102 62 198 0.0 3.5 0.03 0.04 0.04 90 1006.4
20260506193101 63 215 0.0 4.3 0.04 0.04 0.04 90 1006.3
20260506192102 63 217 3.5 4.3 0.04 0.04 0.04 89 1006.4
20260506184101 66 207 0.0 2.6 0.01 0.01 0.01 81 1006.6
20260506182101 68 193 0.0 6.1 0.00 0.00 0.00 72 1006.7
20260506175101 71 190 4.3 6.1 0.00 0.00 0.00 63 1006.8
20260506174101 71 231 3.5 6.1 0.00 0.00 0.00 61 1006.6
20260506173101 72 193 2.6 7.0 0.00 0.00 0.00 61 1006.6
20260506172101 73 131 3.5 8.7 0.00 0.00 0.00 60 1006.3
20260506171101 73 129 1.7 5.2 0.00 0.00 0.00 60 1006.5
20260506165101 72 240 0.0 6.1 0.00 0.00 0.00 63 1007.0
20260506164101 71 178 0.9 6.1 0.00 0.00 0.00 63 1007.0
20260506161101 70 212 0.0 3.5 0.00 0.00 0.00 66 1007.6
20260506160101 70 260 0.0 5.2 0.00 0.00 0.00 67 1007.9
20260506155101 70 187 0.0 4.3 0.00 0.00 0.00 67 1008.1
20260506154100 69 199 4.3 6.1 0.00 0.00 0.00 68 1008.3
20260506153100 69 224 4.3 5.2 0.00 0.00 0.00 67 1008.4
20260506152101 69 170 0.0 8.7 0.00 0.00 0.00 68 1008.5
20260506151100 69 199 0.9 5.2 0.00 0.00 0.00 68 1008.7
20260506145100 69 185 2.6 5.2 0.00 0.00 0.00 69 1008.8
20260506144100 69 194 2.6 5.2 0.00 0.00 0.00 68 1008.7
20260506142101 69 202 2.6 5.2 0.00 0.00 0.00 69 1008.5
20260506141101 68 202 2.6 6.1 0.00 0.00 0.00 71 1008.4
20260506135100 68 171 0.0 6.1 0.00 0.00 0.00 73 1008.5
20260506134100 67 184 0.9 9.6 0.00 0.00 0.00 75 1008.6
20260506132100 65 169 0.9 4.3 0.00 0.00 0.00 77 1009.0
20260506131100 64 223 0.9 4.3 0.00 0.00 0.00 78 1009.2
20260506130100 64 183 3.5 7.8 0.00 0.00 0.00 78 1009.0
20260506125100 64 259 0.9 5.2 0.00 0.00 0.00 79 1009.2
20260506123100 63 239 0.0 4.3 0.00 0.00 0.00 80 1008.9
20260506122100 63 221 0.0 4.3 0.00 0.00 0.00 80 1008.9
20260506121100 63 9 1.7 5.2 0.00 0.00 0.00 80 1009.3
20260506115100 61 115 0.0 4.3 0.00 0.00 0.00 82 1009.3
20260506113100 61 263 0.0 6.1 0.00 0.00 0.00 83 1009.4
20260506112100 61 214 0.9 4.3 0.00 0.00 0.00 83 1009.6
20260506111100 61 186 0.0 3.5 0.00 0.00 0.00 83 1009.6
20260506110100 60 193 0.0 5.2 0.00 0.00 0.00 84 1009.4
20260506105100 59 186 0.0 1.7 0.00 0.00 0.00 85 1009.6
20260506103100 59 205 1.7 2.6 0.00 0.00 0.00 84 1009.4
20260506102100 59 150 0.0 0.9 0.00 0.00 0.00 84 1009.3
20260506101100 59 200 0.0 0.0 0.00 0.00 0.00 84 1009.4
20260506100100 59 199 0.0 2.6 0.00 0.00 0.00 84 1009.4
20260506095059 59 212 0.0 0.0 0.00 0.00 0.00 83 1009.4
20260506094100 59 221 0.0 3.5 0.00 0.00 0.00 83 1009.3
20260506093059 59 163 0.0 2.6 0.00 0.00 0.00 83 1009.1
20260506092100 59 216 0.0 2.6 0.00 0.00 0.00 82 1009.3
20260506091100 59 215 0.0 3.5 0.00 0.00 0.00 82 1009.2
20260506090100 60 218 0.0 3.5 0.00 0.00 0.00 82 1009.2
20260506085059 60 257 0.0 3.5 0.00 0.00 0.00 81 1009.2
20260506084100 60 246 0.0 3.5 0.00 0.00 0.00 81 1009.3
20260506083100 60 258 0.9 5.2 0.00 0.00 0.00 80 1009.3
20260506072059 62 183 0.0 0.0 0.00 0.00 0.00 76 1009.1
20260506071059 62 175 0.0 3.5 0.00 0.00 0.00 74 1009.0